Location: Marsån
(66.4167°N, 22.2833°E)
Time: 07:43:42
(UTC+00:00)

Cosmos 921 Rocket - Pass Details

Date: 24 February 2024
Orbit: 568 x 626 km, 75.8° (Epoch: 20 April)

Event Time Altitude Azimuth Distance (km) Brightness Sun altitude
Rises 20:16:52 0° 322° (NW) 2,789 7.7 -27.8°
Reaches altitude 10° 20:19:05 10° 323° (NW) 1,886 6.5 -27.9°
Enters shadow 20:21:55 42° 322° (NW) 820 4.0 -28.1°
